Regional Weather Roundup
Issued by NWS

Home | Current Version | Previous Version | Graphics & Text | Print | Product List | Glossary On
Versions: 1 2 3 4 5 6 7 8 9 10 11 12 13 14 15 16 17 18 19 20 21 22 23 24 25 26 27 28 29 30 31 32 33 34 35 36 37 38 39 40 41 42 43 44 45 46 47 48 49 50
000
ASUS45 KSLC 220410
RWRUT

UTAH REGIONAL WEATHER ROUNDUP
NATIONAL WEATHER SERVICE SALT LAKE CITY UT
1000 PM MDT SUN SEP 21 2014

UTZ001>011-023>025-220500-

NORTHERN UTAH

CITY           SKY/WX    TMP DP  RH WIND       PRES   REMARKS
HILL AFB       PTCLDY    59  53  81 E12       30.17S
LOGAN          MOCLDY    55  54  96 SW5       30.17F
OGDEN          PTCLDY    59  56  89 CALM      30.15S
PROVO AIRPORT  PTCLDY    59  55  88 CALM      30.17S
SALT LAKE CITY MOCLDY    64  57  78 W3        30.13F
VERNAL         PTCLDY    54  53  97 W3        30.23F
WENDOVER       CLOUDY    59  52  77 SW8       30.13F
HEBER CITY     CLEAR     52  50  93 CALM      30.22F
WEST JORDAN    PTCLDY    63  54  72 CALM      30.16S

$$

UTZ012>022-026-027-220500-

SOUTHERN UTAH

CITY           SKY/WX    TMP DP  RH WIND       PRES   REMARKS
BRYCE CANYON   PTCLDY    50  48  93 CALM      30.33R
CEDAR CITY     PTCLDY    61  55  81 SE6       30.19R
MILFORD        CLOUDY    61  53  75 NE10      30.17R THUNDER
MOAB/CYNLANDS  CLEAR     64  61  90 NE8       30.15S
PRICE          PTCLDY    58  53  84 N3        30.24R
ST GEORGE      CLEAR     72  61  68 SE7       30.03R
KANAB            N/A     64  55  72 N9        30.18R

$$

REGIONAL REPORTS     COLORADO/ARIZONA

CITY           SKY/WX    TMP DP  RH WIND       PRES   REMARKS
CRAIG, CO      HVY RAIN  56  52  86 E7        30.31F FOG
GRAND JUNCTION PTCLDY    58  56  93 N6        30.19F
RIFLE          RAIN      61  58  90 NE7       30.28R
MONTROSE       MOCLDY    62  55  77 CALM      30.28S
CORTEZ         LGT RAIN  61  59  93 N5        30.30R
PAGE, AZ       CLEAR     73  56  54 CALM      30.10R
GRAND CANYON   CLEAR     51  45  79 CALM      30.28R
KINGMAN        CLEAR     70  38  31 S9        30.06R
FLAGSTAFF      CLEAR     55  48  77 SW12      30.32R

$$

REGIONAL REPORTS    NEVADA/IDAHO/WYOMING

CITY           SKY/WX    TMP DP  RH WIND       PRES   REMARKS
LAS VEGAS, NV  PTCLDY    88  45  22 S16       29.89R
ELY            CLOUDY    50  48  93 SW7       30.25S
ELKO           CLOUDY    59  45  59 SW5       30.15R
POCATELLO, ID  PTCLDY    58  58 100 E5        30.16F
BURLEY         PTCLDY    58  56  93 N3        30.10F
EVANSTON, WY   PTCLDY    49  46  90 E8        30.30S
ROCK SPRINGS   CLOUDY    53  49  86 S9        30.28F

$$



USA.gov is the U.S. government's official web portal to all federal, state and local government web resources and services.